Theta_e
317 317 320 318 316 315 319 316 315 316 318 315 330 327 330 332 341 331 336 337 334 325 322 330 339 338 336 334 332 329 326 325 325 324 324 323 323 324 325 330 334 337 337 336 336 337 333 328 327
318 318 318 312 317 316 312 316 319 317 319 317 322 345 346 344 342 339 336 336 332 325 326 332 339 339 337 335 332 329 326 325 325 324 324 324 324 325 327 330 336 337 337 336 338 333 328 329 331
318 318 315 314 313 315 316 318 318 317 317 317 328 343 344 343 341 339 339 336 331 331 329 333 337 339 338 336 333 329 326 324 325 325 325 325 326 327 332 336 337 337 336 336 333 329 329 329 331
319 315 311 317 318 316 318 318 317 317 317 319 334 345 343 343 341 340 338 336 331 328 330 330 335 338 337 336 334 329 326 325 325 326 326 326 328 336 339 339 338 337 335 334 330 329 328 327 327
317 311 318 316 317 315 315 316 316 317 316 323 341 344 346 343 342 340 337 336 333 329 322 321 328 334 336 336 334 330 327 327 326 327 327 328 336 339 339 338 337 334 330 330 329 327 325 324 326
315 310 317 317 316 316 315 316 317 318 317 323 346 349 347 342 340 338 337 336 332 329 330 330 327 329 334 335 333 329 328 329 329 329 331 334 339 338 338 337 336 334 330 329 328 325 324 323 328
318 315 316 316 316 317 317 317 318 317 316 320 343 348 345 341 341 338 337 335 333 330 331 334 336 332 334 335 333 330 330 331 331 332 335 337 341 337 337 336 332 330 329 328 325 321 324 321 324
314 316 319 316 318 319 318 317 318 317 318 327 342 339 337 340 341 339 337 335 333 331 330 329 336 336 336 336 332 330 331 333 333 333 335 336 338 336 336 334 331 330 329 324 316 312 318 320 321
312 320 317 318 318 318 317 319 318 317 316 315 330 342 340 342 340 338 337 336 334 333 331 330 337 337 336 335 332 330 331 333 334 334 334 335 334 335 334 332 332 329 326 317 311 307 311 318 320
318 319 322 317 317 318 319 318 317 317 317 317 323 337 342 340 339 336 337 336 336 334 333 332 335 339 338 334 331 331 332 333 335 335 335 334 333 333 332 332 331 328 320 311 305 304 309 316 318
317 320 319 319 316 317 318 318 319 318 317 318 317 319 341 338 338 337 336 336 335 334 333 333 332 335 335 332 332 333 333 334 335 334 333 333 331 334 333 332 329 325 312 304 302 304 307 313 317
322 318 319 319 318 318 319 317 318 315 318 317 315 318 340 340 337 338 337 337 336 335 333 332 332 333 331 331 331 332 333 332 336 334 334 334 332 333 332 331 328 321 308 302 301 304 308 311 315
319 319 318 318 316 316 316 317 318 316 315 315 314 314 335 341 339 339 339 338 337 336 334 333 333 332 329 331 332 333 334 335 336 335 335 334 333 331 331 329 326 318 306 302 302 306 310 313 314
318 318 318 317 317 316 318 317 318 317 315 316 316 316 327 338 340 340 340 339 339 338 337 334 332 332 331 332 333 333 333 334 335 335 335 333 333 333 330 327 324 316 305 303 304 306 309 313 313
320 321 318 317 318 317 316 318 318 316 316 318 318 316 314 325 333 338 340 340 339 339 338 337 334 332 332 332 333 333 333 332 333 334 334 333 332 333 332 327 323 316 305 303 306 308 309 311 311
321 320 320 317 317 318 319 321 319 318 320 319 316 312 313 313 312 315 319 337 341 340 339 337 335 333 333 332 333 332 332 333 333 333 334 333 332 332 332 328 323 318 305 303 306 308 308 310 309
319 322 322 322 320 321 322 322 321 321 320 318 312 311 312 311 311 313 316 318 332 341 340 338 337 336 334 333 332 331 331 332 333 333 333 332 332 332 331 329 324 317 304 302 306 307 308 308 307
322 324 324 324 322 323 325 325 322 320 318 313 309 308 307 307 307 309 310 313 323 337 341 340 338 337 335 333 332 331 330 332 332 332 332 332 332 332 331 330 324 314 303 303 307 307 307 308 307
321 323 325 323 323 325 325 323 320 317 315 309 307 305 305 306 306 308 309 311 317 328 339 341 339 338 336 335 332 332 332 331 330 331 330 331 332 332 331 330 324 317 302 303 307 306 306 306 305
323 326 327 324 324 323 321 319 317 316 313 308 306 305 305 305 306 307 308 311 315 318 325 329 337 340 338 337 335 334 333 332 332 331 330 330 331 332 332 331 323 320 303 305 307 306 304 304 305
320 323 323 324 319 316 317 318 317 313 309 307 306 305 304 304 305 306 306 307 311 314 315 325 331 335 339 338 336 335 334 333 333 332 331 329 329 330 331 331 327 323 304 305 308 307 305 303 303
317 315 317 317 318 320 319 323 320 315 311 308 307 305 304 304 304 305 305 307 309 312 314 315 323 330 331 329 336 335 334 332 332 332 330 328 326 328 327 327 328 320 310 306 307 306 305 304 302
316 315 316 317 319 322 321 324 319 313 314 310 308 307 306 305 303 303 304 307 310 311 312 314 316 319 324 327 331 335 334 334 333 331 330 327 325 325 327 324 322 318 315 309 306 304 305 305 303
315 316 316 317 317 321 318 322 318 315 316 310 309 307 306 304 303 302 303 306 309 311 312 313 314 315 315 320 324 325 322 332 333 329 326 324 324 321 322 322 319 318 312 309 309 306 305 305 304
316 317 318 317 323 322 317 318 317 315 311 309 309 308 306 303 303 302 300 302 307 310 311 312 313 314 314 315 314 316 316 316 317 320 322 322 321 319 318 317 316 312 313 309 307 305 304 304 304
316 319 321 322 322 318 319 320 317 314 309 309 308 307 306 306 304 303 302 302 304 307 310 311 312 313 313 314 313 313 314 314 315 316 316 315 316 316 315 314 312 310 308 306 305 304 304 303 304
315 320 318 321 319 317 316 315 316 314 313 309 309 309 309 307 306 306 306 304 303 304 307 309 310 311 311 312 313 315 314 313 314 315 315 314 314 315 315 313 311 309 306 305 306 306 303 302 303
312 313 317 316 318 319 313 313 312 317 317 311 310 309 310 308 305 306 306 306 305 304 304 306 309 309 310 311 312 315 315 315 314 314 313 313 312 312 312 311 310 306 307 306 307 305 304 303 302
314 315 314 313 311 314 314 311 310 314 314 314 310 309 310 306 304 305 304 306 305 304 303 304 304 306 308 310 309 311 312 312 313 314 313 311 311 310 309 308 307 306 306 306 304 303 303 303 301
308 308 311 309 307 312 308 313 312 311 311 310 309 309 308 305 306 304 303 304 302 303 305 305 305 304 305 308 309 310 311 312 311 311 312 312 311 309 308 307 306 306 305 304 303 301 300 302 301
Wind_Speed
3 3 1 4 4 5 3 5 2 4 3 4 4 3 5 2 5 5 6 10 15 38 42 40 38 35 31 29 29 27 27 26 26 26 26 26 25 23 22 20 19 19 17 17 16 15 14 15 16
2 1 3 2 4 3 5 4 4 7 6 8 7 3 3 5 2 1 5 9 18 36 39 38 37 35 32 29 29 28 27 27 26 26 25 25 25 24 22 20 19 17 17 16 16 15 15 15 15
1 2 3 4 3 4 4 5 6 8 9 4 2 2 3 3 1 2 4 16 25 32 35 35 35 34 31 29 28 29 27 27 26 25 25 25 25 23 22 20 19 17 16 15 15 15 15 15 15
2 5 4 3 4 5 4 9 7 11 8 3 1 1 1 5 4 3 9 19 29 35 34 33 34 34 32 29 27 27 27 27 27 26 25 25 24 23 23 20 18 16 15 15 14 15 15 15 18
5 3 2 1 4 4 5 6 6 8 6 6 3 6 5 3 3 5 18 22 30 38 37 36 36 35 32 30 28 26 26 26 27 26 25 25 24 24 23 22 20 16 16 15 15 16 15 16 19
4 3 2 3 4 5 5 7 3 3 6 8 4 2 5 7 1 9 18 22 28 35 34 33 35 35 34 32 29 27 26 26 25 25 24 23 22 23 24 24 19 15 14 16 16 18 18 18 21
5 4 4 2 4 6 5 2 3 5 6 6 6 3 4 6 3 10 15 19 26 32 33 27 30 32 33 32 30 28 26 26 25 25 23 22 22 24 23 21 16 14 15 16 17 19 20 20 20
5 4 2 3 2 5 3 5 5 4 10 2 2 2 5 5 11 12 15 17 20 27 32 30 27 30 32 32 30 28 27 26 25 25 24 23 23 23 21 18 15 15 16 17 16 18 20 20 20
2 2 2 4 2 5 5 8 2 4 4 5 4 3 7 6 16 17 14 15 20 24 28 30 29 32 34 32 31 29 28 28 26 25 25 23 23 23 21 18 17 17 18 18 17 19 20 21 21
3 4 7 7 5 5 4 2 7 6 7 3 4 5 4 13 18 17 16 18 23 27 31 32 30 29 31 34 33 32 31 29 28 27 26 25 25 24 23 20 18 19 19 19 18 20 22 24 24
4 5 4 4 7 5 4 2 3 5 7 5 10 7 4 7 11 11 15 20 28 31 33 36 36 34 36 36 35 34 33 33 31 30 28 27 26 25 24 23 22 21 21 22 21 24 24 25 24
3 5 4 3 4 5 5 5 5 8 10 9 10 7 4 10 11 15 18 24 25 28 36 38 39 38 40 39 41 41 41 40 38 36 33 31 27 27 26 25 24 23 24 24 23 23 24 24 23
4 4 4 2 8 6 4 7 8 7 13 12 10 8 10 12 14 22 25 19 24 31 36 39 38 41 45 45 43 42 36 34 37 39 36 33 29 29 27 26 25 24 24 25 25 24 25 25 25
1 3 8 4 7 6 6 6 0 7 7 10 7 10 9 10 16 18 16 25 30 34 37 42 44 44 43 44 43 41 35 33 36 39 38 35 33 29 29 27 27 26 25 26 25 25 26 25 25
2 5 6 5 2 4 6 5 5 10 7 10 12 9 9 8 13 14 24 26 32 36 32 41 47 46 47 47 40 33 33 36 40 41 41 38 37 34 31 30 29 27 26 25 25 23 25 26 26
2 1 4 4 2 4 2 6 9 12 11 12 8 7 6 7 8 20 21 19 25 26 30 27 27 33 41 41 34 33 32 37 40 40 41 41 40 36 33 33 32 30 29 28 27 25 26 27 27
4 4 3 7 2 2 5 6 16 14 9 10 8 8 8 10 15 22 27 23 14 30 29 30 32 35 38 34 32 31 33 38 46 46 46 44 42 39 37 35 35 34 33 34 29 28 29 28 27
5 4 4 7 3 9 14 12 13 12 6 5 6 6 7 9 13 20 24 28 23 17 30 30 33 34 34 33 33 34 34 36 37 43 49 47 45 42 40 37 38 36 37 34 34 31 28 31 30
3 3 5 7 9 5 9 8 10 11 1 7 7 8 8 8 8 18 24 27 32 24 15 29 27 32 33 35 35 36 38 30 33 35 40 47 50 48 44 43 38 36 40 40 36 33 32 28 31
6 5 7 6 7 5 9 17 17 10 3 5 6 6 6 6 9 13 18 26 27 24 19 17 17 28 31 34 35 37 34 31 34 36 41 50 52 53 51 49 46 48 47 44 43 40 34 25 38
4 5 5 7 5 5 7 8 4 5 6 6 6 4 6 7 9 10 15 21 25 26 25 16 17 18 27 32 30 28 27 27 29 36 40 47 51 54 55 54 54 50 49 49 51 51 46 29 39
4 9 11 7 1 3 3 6 5 6 4 3 4 5 6 7 6 5 7 10 17 18 21 20 19 10 9 17 27 30 29 30 36 35 35 38 45 51 53 54 57 55 54 48 53 54 50 38 38
7 5 6 4 4 2 4 2 2 3 4 4 3 5 6 6 7 8 8 12 15 20 21 21 20 25 21 13 13 28 31 34 33 32 32 37 40 49 56 54 54 56 56 52 46 42 41 39 38
1 1 4 3 3 4 11 8 10 5 2 3 2 3 6 7 8 8 12 10 14 16 16 18 21 21 23 21 14 12 27 26 29 27 31 32 35 38 48 54 55 58 52 52 56 56 55 50 41
3 4 3 3 1 6 4 5 12 2 1 4 4 5 6 7 7 8 8 9 13 12 14 17 17 18 18 20 20 18 18 22 24 20 19 25 29 32 38 44 46 46 58 54 54 56 52 50 44
3 5 4 5 3 4 1 6 5 4 4 2 2 4 6 7 8 9 8 11 12 13 11 12 13 16 14 14 13 14 15 14 14 16 15 13 11 15 20 21 22 28 33 35 35 39 41 42 40
2 2 1 1 2 1 4 6 2 4 2 2 5 6 7 8 12 10 11 17 17 14 13 13 14 15 17 15 14 14 13 17 15 9 10 13 14 14 15 15 25 20 16 25 27 31 23 28 37
2 4 3 2 3 5 5 5 6 0 3 3 6 8 7 10 13 13 12 17 20 18 16 15 17 19 19 13 12 10 8 9 11 13 9 8 11 18 17 14 16 23 24 23 23 27 31 32 30
2 1 4 1 3 4 11 9 4 3 2 1 7 8 9 10 9 10 12 19 20 18 15 18 19 21 23 18 13 11 11 9 7 6 4 6 4 11 16 10 20 18 20 22 25 28 31 34 34
2 2 5 4 6 4 1 16 2 4 2 5 8 9 8 9 11 11 12 15 18 12 13 18 19 20 22 22 20 20 16 12 10 8 4 7 3 5 10 14 16 16 19 19 22 27 30 32 30
Wind_Direction
264 312 331 28 46 59 284 275 269 284 250 209 268 181 204 212 182 213 335 171 186 175 173 173 175 175 174 172 165 161 158 158 157 155 152 150 148 146 144 142 138 132 127 122 119 117 121 126 128
319 39 50 75 84 68 277 261 261 246 264 273 247 211 242 273 195 259 134 176 183 174 172 172 176 176 176 175 169 166 164 162 161 159 155 152 149 148 146 144 138 133 129 126 122 124 131 129 130
357 78 74 83 112 170 224 233 256 275 288 243 277 246 176 258 332 270 228 165 169 169 172 171 177 178 178 178 175 170 170 167 165 163 160 157 154 152 149 147 140 137 133 129 129 135 135 134 134
100 22 41 82 246 240 233 284 308 321 340 29 228 242 339 25 347 274 159 163 169 174 176 173 178 179 181 183 182 177 173 171 168 167 166 163 159 156 153 151 146 143 139 135 139 136 136 137 143
58 58 53 11 259 263 243 277 283 306 284 308 24 321 298 49 23 172 161 165 174 176 180 181 182 182 184 185 186 183 179 176 171 170 170 168 165 164 160 155 158 153 149 149 145 137 138 140 145
48 98 53 259 266 269 281 246 286 298 305 305 58 351 291 335 337 167 170 169 178 178 183 183 184 184 185 187 188 188 185 181 177 175 175 172 170 172 168 169 173 156 156 156 154 146 145 145 144
123 97 224 234 268 300 266 325 322 311 311 308 154 153 267 303 236 173 177 177 182 185 187 185 184 185 186 189 189 190 190 187 183 180 177 179 171 177 177 180 177 168 160 164 162 156 157 158 153
109 103 179 238 229 278 274 337 288 326 299 284 211 264 280 251 179 177 181 185 192 193 192 187 183 188 189 190 191 192 193 192 190 186 182 183 181 181 187 189 181 171 168 171 166 159 162 162 160
133 85 209 251 207 252 314 351 271 301 322 324 330 331 318 198 178 168 172 191 199 199 198 193 188 190 194 194 193 194 197 197 196 193 190 189 187 187 191 193 185 178 173 177 174 166 165 163 160
123 152 224 204 215 249 297 301 312 344 323 300 312 290 338 182 180 167 178 191 200 200 201 200 195 192 195 198 196 195 197 199 200 201 198 199 197 194 193 193 190 184 178 181 178 172 167 167 165
178 206 215 253 246 260 282 301 258 296 302 257 284 267 211 213 204 207 206 204 206 201 201 202 200 199 199 201 200 199 198 200 202 204 202 200 206 196 196 194 191 185 183 183 180 177 176 174 170
260 244 230 277 342 344 299 290 272 203 249 254 258 251 203 215 213 212 213 215 207 206 208 206 207 202 204 205 204 203 201 201 201 202 201 204 202 198 199 198 195 190 186 186 184 180 176 176 173
203 253 303 248 280 258 264 244 250 231 255 265 274 258 227 222 222 227 224 218 208 210 212 214 209 209 207 206 208 208 203 202 203 204 202 205 209 203 203 201 198 194 191 189 183 179 177 175 171
254 285 292 300 273 247 241 278 194 257 304 304 291 268 251 227 231 235 225 218 213 217 215 215 215 215 213 211 209 208 206 205 206 208 206 206 213 211 208 206 202 198 196 191 190 185 182 177 174
232 310 302 246 212 257 164 314 255 274 320 304 308 350 343 309 298 252 236 227 224 222 216 216 217 214 214 213 211 209 210 209 212 212 209 211 215 214 212 209 207 202 199 196 194 188 186 179 175
344 81 348 305 350 327 126 283 292 298 327 303 356 31 30 26 24 17 6 271 241 233 225 222 217 217 216 213 211 213 213 213 214 216 215 213 217 217 215 209 212 206 198 195 194 189 183 181 177
1 236 240 315 199 113 87 264 286 294 296 302 31 15 21 15 16 10 7 355 291 235 226 220 217 219 217 219 222 223 219 215 215 217 218 217 218 219 220 214 212 207 200 190 196 191 188 181 177
197 222 237 252 311 349 305 271 269 283 280 50 26 23 29 24 3 356 0 8 9 246 230 230 218 219 220 217 220 224 224 222 216 217 220 219 218 223 221 218 214 209 198 191 189 195 189 184 176
186 215 239 267 290 283 253 270 256 270 78 78 35 20 20 10 334 5 9 15 23 31 244 227 224 224 212 211 210 218 220 224 221 219 220 223 221 218 223 223 212 214 206 192 193 189 189 176 175
245 268 272 285 262 297 276 285 272 251 124 75 61 40 14 358 357 5 14 23 27 24 7 1 270 230 222 219 225 224 225 224 222 219 221 225 223 221 217 219 215 209 206 200 194 189 179 175 179
210 211 248 247 306 268 311 304 320 43 94 88 65 40 7 355 352 353 359 8 19 17 15 359 310 303 249 234 228 231 231 225 217 221 220 223 220 221 218 219 216 213 210 202 202 190 188 172 179
243 215 232 255 138 248 36 294 275 181 173 89 59 34 5 349 337 323 337 351 17 21 23 12 8 347 307 323 242 225 225 224 226 225 224 219 217 219 221 218 216 213 207 201 202 194 191 181 179
225 193 203 205 193 312 198 242 243 104 216 188 55 12 339 313 300 302 315 350 5 13 18 18 22 17 6 324 306 248 234 237 237 229 224 220 220 218 221 218 214 209 205 204 199 190 186 190 182
214 197 39 54 129 259 209 177 278 215 240 115 120 327 299 317 316 310 324 338 350 354 2 4 0 6 15 7 351 15 359 263 234 229 217 215 218 218 217 217 214 209 204 199 204 202 194 192 193
95 80 320 327 172 234 328 205 248 104 60 142 163 266 307 312 312 316 327 340 343 344 346 347 345 346 0 1 6 15 22 354 351 346 256 230 213 213 217 216 213 217 203 200 195 194 193 191 190
158 174 169 237 224 267 317 249 255 149 106 97 260 295 302 326 334 327 324 321 324 331 337 339 333 330 344 353 11 8 7 13 3 1 320 335 294 235 236 225 245 240 215 196 189 189 185 194 188
185 184 336 290 153 1 229 282 61 102 128 210 282 320 319 341 325 317 314 311 315 316 303 308 317 317 330 341 348 347 9 23 13 353 350 310 286 282 265 234 224 225 232 196 191 198 198 190 193
130 140 82 11 274 243 255 274 245 218 249 236 285 286 303 313 316 314 310 305 310 315 312 298 289 294 307 320 343 342 335 346 9 15 9 0 315 298 283 242 225 199 201 210 196 203 193 194 182
77 132 57 169 167 232 279 271 194 103 78 332 274 266 266 280 292 298 297 301 306 316 315 322 304 292 288 288 300 299 311 317 315 323 329 339 329 255 243 231 215 198 188 193 193 198 189 182 174
65 204 161 167 267 239 241 268 56 121 178 248 273 270 263 279 290 299 304 305 312 314 353 351 338 310 294 284 277 283 283 299 300 295 293 261 195 266 233 215 206 180 186 189 192 182 176 173 172